Location: ??
(35.4627°N, 139.3695°E)
Time: 05:40:17
(UTC+00:00)

ATLAS 3B R/B - Pass Details

Date: 25 November 2020
Orbit: 1013 x 1182 km, 63.8° (Epoch: 08 January)

Event Time Altitude Azimuth Distance (km) Brightness Sun altitude
Rises 20:51:00 0° 332° (NNW) 3,871 5.2 -7.9°
Reaches altitude 10° 20:53:40 10° 335° (NNW) 2,937 4.6 -7.4°
Maximum altitude 21:00:36 63° 57° (ENE) 1,239 3.3 -6.1°
Drops below altitude 10° 21:07:47 10° 137° (SE) 3,042 6.3 -4.7°
Sets 21:10:34 0° 141° (SE) 4,018 7.0 -4.2°
